Find VisionCube

NORAD ID: 43822 Int'l Des: NNA 2018-099 Owner: KRAU Country: KR operational
LEOCIRCULARRETROGRADESSO

Live Position

Loading 3D Globe...

About VisionCube

Description loading...

Upcoming Passes

Passes for default location (London). Set your location on the main map for personalized predictions.

Altitude History

Loading altitude history...

Two-Line Element Set

1 43822U 18099BS 26105.68984412 .00002748 00000-0 15496-3 0 9991
2 43822 97.4386 157.1878 0007487 195.7250 164.3751 15.13982499396769
Epoch: Apr 15, 2026 • Age: 14 hours

Current Status

Altitude 532.7 km
Velocity 7.60 km/s
Sub-Earth Point 28.60°N, 155.11°W
Launch Date Dec 3, 2018
Age 7.3 years
Type other

Technical Details

Classification Payload
Mass 2.00 kg
Dry Mass 2.00 kg
Total Mass 2.00 kg
Length 0.20 m
Diameter 0.10 m
Span 0.20 m
Shape Box
Manufacturer KRAU
Bus Type Cubesat 2U
Phase Status In Orbit
Owner/State KRAU/KR

Most Searched